Content
SEND FEEDBACK

Daily
Averages
Monthly
Summary
India

NAGPUR, INDIA


Home > Asia > India
Elevation: 1017 feet     Latitude: 21 06N     Longitude: 079 03E

WEATHER
 
SELECT A DAY
Number of Records: 117,973;   Date Range: 2/14/97 - 7/27/14
 
SHARE

PRINT THIS DATA

[ ← Previous Day ]
WEATHER ALMANAC - JANUARY 31, 2013
[ Next Day → ]
[ °C ]   °F
Weather ElementAverageHighLow
Temperature64.6 °F84.2 °F (3:10 pm)48.2 °F (6:10 am)
Dewpoint55.3 °F66.2 °F (3:10 pm)46 °F (5:30 am)
Humidity71.9 %93 % (6:10 am)42 % (11:30 am)
Barometer30.02 in30.07 in (8:30 am)29.94 in (2:30 pm)
Wind Speed1.4 mph4.6 mph (6:10 am)
Weather ElementAverage
Visibility2.4 mi
Wind DirectionENE (75 °)

Weather ElementTotal
Precipitation---
Cooling Degree Days1.2 (Base 65)
Growing Degree Days16.2 (Base 50)
Averaged from 27 records on January 31, 2013
WEATHER CONDITIONS BREAKOUT
WIND DIRECTION BREAKOUT
WEATHER BY HOUR - JANUARY 31, 2013
[ °C ]   °F
Local TimeTemperatureDewpointHumidityBarometerVisibilityWind DirectionWind SpeedGust SpeedPrecipitationEventsConditions
1:10 AM55.4 °F51.8 °F88 %30.04 in3.1 miSE (140°)2.3 mphHaze
2:10 AM55.4 °F51.8 °F88 %30.01 in3.1 miSE (140°)3.5 mphHaze
2:30 AM53.0 °F49.0 °F81 %30.03 in1.0 miCalmHaze
3:10 AM51.8 °F48.2 °F88 %30.01 in3.1 miCalmHaze
4:10 AM50.0 °F46.4 °F87 %29.98 in3.1 miCalmHaze
5:10 AM50.0 °F46.4 °F87 %30.01 in2.5 miCalmHaze
5:30 AM49.0 °F46.0 °F87 %30.03 in1.0 miNW (320°)3.5 mphHaze
6:10 AM48.2 °F46.4 °F93 %30.01 in2.5 miNW (320°)4.6 mphHaze
7:40 AM50.0 °F46.4 °F87 %30.04 in1.9 miCalmHaze
8:10 AM50.0 °F46.4 °F87 %30.06 in1.9 miNorth (360°)2.3 mphHaze
8:30 AM58.0 °F51.0 °F72 %30.07 in1.0 miNNE (20°)3.5 mphHaze
9:10 AM59.0 °F51.8 °F77 %30.06 in1.9 miNNE (20°)2.3 mphHaze
10:10 AM66.2 °F55.4 °F68 %30.06 in2.2 miCalmHaze
11:10 AM75.2 °F59.0 °F57 %30.06 in2.2 miCalmHaze
11:30 AM79.0 °F60.0 °F42 %30.04 in1.0 miENE (70°)3.5 mphHaze
2:10 PM82.4 °F60.8 °F48 %29.98 in3.7 miESE (110°)2.3 mphPartly Cloudy
2:30 PM83.0 °F65.0 °F44 %29.94 in1.0 miEast (90°)2.3 mphScattered Clouds
3:10 PM84.2 °F66.2 °F55 %29.98 in3.7 miEast (90°)2.3 mphPartly Cloudy
4:10 PM82.4 °F64.4 °F54 %29.98 in3.7 miESE (110°)2.3 mphPartly Cloudy
5:10 PM80.6 °F66.2 °F61 %29.98 in3.7 miCalmPartly Cloudy
5:30 PM77.0 °F63.0 °F53 %29.95 in2.0 miNorth (10°)2.3 mphHaze
7:10 PM75.2 °F62.6 °F65 %30.01 in3.1 miCalmHaze
8:10 PM73.4 °F60.8 °F65 %30.04 in3.1 miCalmHaze
8:30 PM65.0 °F57.0 °F69 %30.03 in2.0 miCalmHaze
9:10 PM66.2 °F59.0 °F78 %30.04 in2.5 miCalmHaze
10:10 PM64.4 °F57.2 °F77 %30.04 in2.5 miCalmHaze
11:30 PM60.0 °F56.0 °F82 %30.04 in1.0 miCalmHaze
Hourly data recorded from VANP, located miles away from Nagpur, India







STORIES FROM OUR PARTNERS